DECAYED

STARLINK-2117, 47395 (Decayed)

Orbit data source: Space-Track

STARLINK-2117, 47395 was a payload satellite owned by SpaceX/Seattle (US) in LEO that was launched on Wed, 20 Jan 2021 UTC via an FALCON 9 launch vehicle from the Air Force Eastern Test Range (AFETR). Payload-class satellites include a variety of spacecraft equipped with specific instruments for various scientific and technological missions. These include communications satellites like Starlink; space stations such as the ISS; scientific satellites like the Hubble; Earth observation satellites from companies like Planet Labs, Umbra, and HawkEye 360; GPS; miniature CubeSats for education and research; and military/defense satellites.

Not visible in the next 10 days
Identifier
47395, 2021-005AY
Orbit
Decayed
Country
Flag of USUS
Related business
Manufacturer
SpaceX/Seattle
Mission
Decayed Commercial Communications
Bus & Motor
STARLINK, Unknown motor
Mass
260 kg wet, ~248 kg dry
Launch date (UTC)
2021-01-20 (5 years ago)
Launch vehicle
FALCON 9
Launch site
Air Force Eastern Test Range (AFETR)
Object type
Payload
Rocket body
Debris
Shape & HBR
Box + 1 Pan, 10.1 m
Radar Cross Section
13.562 m², Large (>1 m²)

Expand to show TLE details & history
Last TLE update: 5 months ago

TLE from 5 months ago
0 STARLINK-2117
1 47395U 21005AY  26029.58399363  .13444485  12576-4  30009-3 0  9994
2 47395  53.0322 156.5511 0004002 301.7994  58.2665 16.46425634278277
Epoch: 2026-01-29T14:00Z
TLE epoch observation values (Epoch: 2026-01-29T14:00:57.049Z)
Latitude
-0.00003°
Longitude
177.47878°
Altitude
148.322 km
Speed
7.819 km/s
True Right ascension
10h 26m 12s
True Declination
0° 00' 00"
Sunlit
Object was in full shadow at epoch
Visualization orbit readout
Latitude
Unknown
Longitude
Unknown
Altitude
Unknown
Speed
Unknown
Apparent Right ascension
Unknown
Apparent Declination
Unknown
Sunlit
N/A
Visualization observer readout
Local Sidereal Time
21:32:09
Azimuth
Unknown
Elevation
Unknown
Doppler factor
Unknown
Orbital elements
Apogee altitude
151.668 km
Perigee altitude
146.443 km
Semi-major axis
6,527.193 km
Eccentricity
0.0004
Inclination
53.0322°
RAAN
156.5511°
Arg. of periapsis
301.7994°
True anomaly
58.30551°
Mean anomaly
58.2665°
Eccentric anomaly
58.28601°
Mean motion
4.11579 °/min
Orbital period
87.47 mins
BSTAR
0.00030009
Loading maneuver chart data...
Computing Atmospheric mass density...

Documentation

Showing up to 5 results
|